This demonstration page uses our WeatherBlox Daily Observations layout. Learn more.

Left ArrowRight Arrow

Hourly Observations for May 6, 2021

Temp ( °F °C ) Dew Point ( °F °C ) Humidity (%) Winds ( mph kmh ) Pressure ( in mb ) Visibility ( mi km ) Precip ( " mm )
12:56 am 00:56 Clear 49 9.4 40 4.4 71 71 N 14 22 30.23 1024 10 16 0.00 0.00
1:56 am 01:56 Clear 46 7.8 41 5 83 83 N 13 20 30.26 1025 10 16 0.00 0.00
2:56 am 02:56 Mostly Clear 43 6.1 39 3.9 86 86 N 9 15 30.27 1025 10 16 0.00 0.00
3:56 am 03:56 Clear 42 5.6 38 3.3 85 85 N 10 17 30.29 1026 10 16 0.00 0.00
4:56 am 04:56 Clear 41 5 37 2.8 86 86 NNW 7 11 30.30 1026 10 16 0.00 0.00
5:56 am 05:56 Clear 39 3.9 36 2.2 89 89 NW 6 9 30.32 1027 10 16 0.00 0.00
6:56 am 06:56 Sunny 38 3.3 35 1.7 89 89 WNW 6 9 30.35 1028 10 16 0.00 0.00
7:56 am 07:56 Sunny 41 5 37 2.8 86 86 NNW 8 13 30.37 1028 10 16 0.00 0.00
8:29 am 08:29 Mostly Sunny 43 6 37 3 81 81 NNW 6 9 30.42 1030 10 16 0.00 0.00
8:56 am 08:56 Mostly Sunny 44 6.7 39 3.9 83 83 N 6 9 30.38 1029 10 16 0.00 0.00
9:56 am 09:56 Sunny 48 8.9 39 3.9 71 71 NNW 8 13 30.38 1029 10 16 0.00 0.00
10:56 am 10:56 Sunny 51 10.6 37 2.8 59 59 VRB 3 6 30.38 1029 10 16 0.00 0.00
11:56 am 11:56 Sunny 56 13.3 33 0.6 42 42 Calm 30.37 1028 10 16 0.00 0.00
12:56 pm 12:56 Sunny 59 15 35 1.7 41 41 VRB 3 6 30.34 1027 10 16 0.00 0.00
1:56 pm 13:56 Sunny 61 16.1 30 -1.1 31 31 Calm 30.31 1026 10 16 0.00 0.00
2:56 pm 14:56 Sunny 62 16.7 29 -1.7 29 29 W 9 15 30.29 1026 10 16 0.00 0.00
3:56 pm 15:56 Sunny 64 17.8 30 -1.1 28 28 VRB 3 6 30.26 1025 10 16 0.00 0.00
4:56 pm 16:56 Sunny 65 18.3 33 0.6 31 31 WSW 9 15 30.24 1024 10 16 0.00 0.00
5:56 pm 17:56 Mostly Sunny 64 17.8 32 0 30 30 S 9 15 30.21 1023 10 16 0.00 0.00
6:56 pm 18:56 Partly Cloudy 66 18.9 32 0 28 28 WSW 9 15 30.19 1022 10 16 0.00 0.00
7:56 pm 19:56 Partly Cloudy 63 17.2 35 1.7 35 35 SSW 10 17 30.17 1022 10 16 0.00 0.00
8:56 pm 20:56 Partly Cloudy 58 14.4 38 3.3 48 48 S 8 13 30.17 1022 10 16 0.00 0.00
9:56 pm 21:56 Mostly Cloudy 55 12.8 38 3.3 53 53 S 9 15 30.17 1022 10 16 0.00 0.00
10:56 pm 22:56 Clear 51 10.6 38 3.3 61 61 S 7 11 30.17 1022 10 16 0.00 0.00
11:56 pm 23:56 Clear 50 10 38 3.3 63 63 SSW 7 11 30.15 1021 10 16 0.00 0.00

Powered by AerisWeather